EW0609 Weather Reports


time (UTC)temp
C
wind
direction
speed
KPH
gust
KPH
rain 1hr
cm
rain 24hr
cm
rain mn
cm
humidity
%
barometer
mb
20260905202813 36 121 8.0 24.1 0.00 0.00 0.00 33 1014.8
20260905202309 36 142 9.7 24.1 0.00 0.00 0.00 32 1014.8
20260905201814 36 135 8.0 19.3 0.00 0.00 0.00 33 1014.9
20260905201342 36 114 6.4 19.3 0.00 0.00 0.00 35 1015.1
20260905201318 36 133 8.0 19.3 0.00 0.00 0.00 33 1014.9
20260905200626 36 124 9.7 19.3 0.00 0.00 0.00 33 1015.2
20260905200038 37 131 9.7 19.3 0.00 0.00 0.00 33 1015.2
20260905195657 37 158 8.0 22.5 0.00 0.00 0.00 34 1015.3
20260905195455 37 148 8.0 19.3 0.00 0.00 0.00 34 1015.3
20260905194727 36 155 8.0 24.1 0.00 0.00 0.00 35 1015.3
20260905194204 36 93 9.7 24.1 0.00 0.00 0.00 33 1015.3
20260905193307 36 148 9.7 20.9 0.00 0.00 0.00 34 1015.3
20260905192807 36 140 11.3 20.9 0.00 0.00 0.00 34 1015.5
20260905192311 36 237 8.0 24.1 0.00 0.00 0.00 34 1015.5
20260905191810 36 169 11.3 24.1 0.00 0.00 0.00 34 1015.6
20260905191536 36 82 9.7 24.1 0.00 0.00 0.00 34 1015.6
20260905190811 36 176 9.7 27.4 0.00 0.00 0.00 34 1015.7
20260905190310 36 221 9.7 27.4 0.00 0.00 0.00 35 1015.7
20260905185811 36 133 9.7 22.5 0.00 0.00 0.00 36 1015.8
20260905185311 36 124 9.7 22.5 0.00 0.00 0.00 36 1015.8
20260905185035 36 223 11.3 22.5 0.00 0.00 0.00 37 1015.9
20260905184905 36 193 8.0 22.5 0.00 0.00 0.00 37 1015.9
20260905183807 35 99 8.0 22.5 0.00 0.00 0.00 39 1016.1
20260905183536 35 102 6.4 22.5 0.00 0.00 0.00 39 1016.2
20260905182809 35 190 9.7 22.5 0.00 0.00 0.00 39 1016.2
20260905182312 35 109 6.4 19.3 0.00 0.00 0.00 41 1016.2
20260905181811 35 162 11.3 22.5 0.00 0.00 0.00 40 1016.3
20260905181308 35 244 6.4 22.5 0.00 0.00 0.00 41 1016.3
20260905180807 34 134 9.7 22.5 0.00 0.00 0.00 41 1016.4
20260905180311 34 171 4.8 24.1 0.00 0.00 0.00 40 1016.4
20260905175810 34 111 11.3 24.1 0.00 0.00 0.00 41 1016.4
20260905175538 33 195 11.3 19.3 0.00 0.00 0.00 43 1016.6
20260905174807 33 199 9.7 22.5 0.00 0.00 0.00 42 1016.7
20260905174309 33 172 12.9 22.5 0.00 0.00 0.00 43 1016.7
20260905173811 33 217 11.3 17.7 0.00 0.00 0.00 42 1016.8
20260905173307 33 221 9.7 24.1 0.00 0.00 0.00 44 1016.8
20260905172807 33 175 12.9 24.1 0.00 0.00 0.00 44 1016.8
20260905172312 33 195 11.3 22.5 0.00 0.00 0.00 45 1016.8
20260905171809 33 171 8.0 22.5 0.00 0.00 0.00 46 1016.9
20260905171705 32 157 9.7 22.5 0.00 0.00 0.00 46 1016.9
20260905170812 32 197 12.9 19.3 0.00 0.00 0.00 47 1016.9
20260905170308 32 123 8.0 19.3 0.00 0.00 0.00 48 1016.9
20260905165811 32 164 8.0 20.9 0.00 0.00 0.00 48 1016.8
20260905165307 32 188 12.9 24.1 0.00 0.00 0.00 48 1016.9
20260905164810 31 130 14.5 24.1 0.00 0.00 0.00 49 1016.7
20260905164308 31 188 6.4 20.9 0.00 0.00 0.00 52 1016.7
20260905164035 31 357 11.3 19.3 0.00 0.00 0.00 51 1016.8
20260905163809 31 357 11.3 19.3 0.00 0.00 0.00 51 1016.8
20260905163310 31 166 9.7 19.3 0.00 0.00 0.00 52 1016.8
20260905162809 30 173 9.7 22.5 0.00 0.00 0.00 54 1016.8
20260905162713 30 151 11.3 22.5 0.00 0.00 0.00 54 1016.8
20260905161810 30 6 9.7 20.9 0.00 0.00 0.00 55 1016.9
20260905161538 29 172 9.7 20.9 0.00 0.00 0.00 56 1016.9
20260905161310 29 172 9.7 20.9 0.00 0.00 0.00 56 1016.9
20260905160809 29 213 8.0 20.9 0.00 0.00 0.00 56 1016.9
20260905160511 28 171 11.3 20.9 0.00 0.00 0.00 59 1016.9
20260905160357 29 66 12.9 20.9 0.00 0.00 0.00 57 1016.9
20260905155308 28 202 11.3 25.7 0.00 0.00 0.00 57 1016.9
20260905154808 28 188 11.3 25.7 0.00 0.00 0.00 59 1016.9
20260905154311 28 199 9.7 24.1 0.00 0.00 0.00 58 1017.1
20260905153806 28 164 9.7 24.1 0.00 0.00 0.00 58 1016.9
20260905153308 28 199 4.8 25.7 0.00 0.00 0.00 59 1016.9
20260905152812 27 227 14.5 25.7 0.00 0.00 0.00 59 1016.9
20260905152308 27 188 9.7 22.5 0.00 0.00 0.00 60 1016.9
20260905151952 27 152 14.5 24.1 0.00 0.00 0.00 61 1016.9
20260905151908 27 197 9.7 24.1 0.00 0.00 0.00 61 1016.9
20260905151317 27 152 14.5 24.1 0.00 0.00 0.00 61 1016.9
20260905150807 27 223 9.7 20.9 0.00 0.00 0.00 62 1016.9
20260905150307 27 192 8.0 20.9 0.00 0.00 0.00 62 1016.9
20260905150032 26 173 6.4 22.5 0.00 0.00 0.00 63 1017.1
20260905145308 26 154 9.7 22.5 0.00 0.00 0.00 64 1017.1
20260905144808 26 134 9.7 22.5 0.00 0.00 0.00 65 1017.1
20260905144307 26 204 9.7 22.5 0.00 0.00 0.00 65 1017.1
20260905143808 26 152 9.7 19.3 0.00 0.00 0.00 65 1017.1
20260905143307 26 93 6.4 19.3 0.00 0.00 0.00 66 1016.9
20260905143143 25 158 8.0 19.3 0.00 0.00 0.00 66 1017.1
20260905142307 25 133 9.7 20.9 0.00 0.00 0.00 67 1017.1
20260905141806 25 214 4.8 20.9 0.00 0.00 0.00 67 1017.2
20260905141308 25 192 8.0 14.5 0.00 0.00 0.00 67 1017.1
20260905140807 25 142 6.4 17.7 0.00 0.00 0.00 68 1017.1
20260905140307 24 145 8.0 17.7 0.00 0.00 0.00 68 1017.2
20260905135806 24 123 8.0 17.7 0.00 0.00 0.00 69 1017.2
20260905135307 24 155 4.8 16.1 0.00 0.00 0.00 70 1017.1
20260905134808 23 113 8.0 16.1 0.00 0.00 0.00 70 1017.1
20260905134636 23 118 4.8 16.1 0.00 0.00 0.00 71 1017.1
20260905134118 23 144 1.6 11.3 0.00 0.00 0.00 72 1017.1
20260905133307 23 103 6.4 11.3 0.00 0.00 0.00 73 1017.1
20260905132806 23 100 3.2 9.7 0.00 0.00 0.00 73 1017.1
20260905132306 22 140 3.2 8.0 0.00 0.00 0.00 74 1017.1
20260905131806 22 178 3.2 8.0 0.00 0.00 0.00 75 1016.9
20260905131631 22 157 3.2 8.0 0.00 0.00 0.00 75 1016.8
20260905130807 22 165 3.2 9.7 0.00 0.00 0.00 75 1016.7
20260905130306 22 169 3.2 9.7 0.00 0.00 0.00 76 1016.7
20260905125814 22 117 3.2 9.7 0.00 0.00 0.00 76 1016.8
20260905125307 22 124 6.4 9.7 0.00 0.00 0.00 76 1016.7
20260905125140 22 116 4.8 9.7 0.00 0.00 0.00 76 1016.6
20260905124314 22 128 6.4 9.7 0.00 0.00 0.00 76 1016.7
20260905123807 22 120 4.8 16.1 0.00 0.00 0.00 76 1016.4
20260905123306 22 128 8.0 16.1 0.00 0.00 0.00 75 1016.5
20260905122806 22 135 6.4 11.3 0.00 0.00 0.00 74 1016.5
20260905122307 22 111 8.0 14.5 0.00 0.00 0.00 74 1016.4
20260905121806 22 141 6.4 17.7 0.00 0.00 0.00 74 1016.4
20260905121306 22 121 8.0 17.7 0.00 0.00 0.00 74 1016.4
20260905120807 22 89 6.4 16.1 0.00 0.00 0.00 74 1016.4
20260905120307 22 102 6.4 16.1 0.00 0.00 0.00 74 1016.4
20260905115806 22 123 6.4 11.3 0.00 0.00 0.00 73 1016.4
20260905115306 22 79 6.4 11.3 0.00 0.00 0.00 73 1016.4
20260905114806 22 116 6.4 11.3 0.00 0.00 0.00 73 1016.3
20260905114308 22 127 3.2 14.5 0.00 0.00 0.00 73 1016.3
20260905113806 22 128 4.8 14.5 0.00 0.00 0.00 73 1016.2
20260905113306 23 89 6.4 16.1 0.00 0.00 0.00 72 1016.3
20260905113136 23 99 9.7 16.1 0.00 0.00 0.00 72 1016.4
20260905112307 23 134 3.2 11.3 0.00 0.00 0.00 71 1016.4
20260905111806 23 102 3.2 11.3 0.00 0.00 0.00 70 1016.4
20260905111306 23 109 4.8 11.3 0.00 0.00 0.00 70 1016.3
20260905110807 23 110 8.0 11.3 0.00 0.00 0.00 69 1016.2
20260905110306 23 107 6.4 11.3 0.00 0.00 0.00 69 1016.1
20260905105806 23 99 4.8 8.0 0.00 0.00 0.00 69 1016.1
20260905105310 23 141 3.2 11.3 0.00 0.00 0.00 68 1016.1
20260905104807 23 106 8.0 11.3 0.00 0.00 0.00 68 1015.9
20260905104306 23 111 4.8 9.7 0.00 0.00 0.00 68 1016.1
20260905103808 23 114 4.8 9.7 0.00 0.00 0.00 67 1015.8
20260905103638 23 100 6.4 8.0 0.00 0.00 0.00 67 1015.9
20260905102806 23 104 1.6 6.4 0.00 0.00 0.00 67 1015.8
20260905102306 23 96 3.2 6.4 0.00 0.00 0.00 67 1015.9
20260905101806 24 110 1.6 6.4 0.00 0.00 0.00 67 1015.8
20260905101306 24 131 3.2 4.8 0.00 0.00 0.00 66 1015.8
20260905100806 24 123 1.6 4.8 0.00 0.00 0.00 66 1015.8
20260905100306 24 135 3.2 8.0 0.00 0.00 0.00 65 1015.8
20260905095806 24 140 3.2 9.7 0.00 0.00 0.00 65 1015.9
20260905095306 24 157 3.2 9.7 0.00 0.00 0.00 65 1015.9
20260905095012 24 173 1.6 8.0 0.00 0.00 0.00 65 1015.9
20260905094923 24 159 3.2 9.7 0.00 0.00 0.00 65 1015.9
20260905093808 24 158 1.6 6.4 0.00 0.00 0.00 64 1015.8
20260905093306 25 103 3.2 9.7 0.00 0.00 0.00 64 1016.1
20260905093136 25 152 3.2 9.7 0.00 0.00 0.00 63 1016.1
20260905092631 25 147 3.2 11.3 0.00 0.00 0.00 63 1016.1
20260905092131 25 168 4.8 11.3 0.00 0.00 0.00 62 1016.2
20260905091306 25 134 4.8 9.7 0.00 0.00 0.00 62 1016.2
20260905090807 25 96 4.8 11.3 0.00 0.00 0.00 62 1016.1
20260905090306 25 185 4.8 11.3 0.00 0.00 0.00 62 1016.2
20260905085806 25 165 4.8 14.5 0.00 0.00 0.00 62 1016.2
20260905085306 25 196 3.2 16.1 0.00 0.00 0.00 61 1016.2
20260905084807 25 180 6.4 16.1 0.00 0.00 0.00 61 1016.2
20260905084307 25 125 4.8 11.3 0.00 0.00 0.00 61 1016.2
20260905084013 25 145 4.8 11.3 0.00 0.00 0.00 61 1016.2
20260905083917 25 199 4.8 11.3 0.00 0.00 0.00 61 1016.3
20260905083138 25 183 4.8 11.3 0.00 0.00 0.00 61 1016.2
20260905082307 25 189 3.2 14.5 0.00 0.00 0.00 61 1016.2
20260905081806 25 144 6.4 14.5 0.00 0.00 0.00 60 1016.2
20260905081307 25 180 8.0 11.3 0.00 0.00 0.00 60 1016.2
20260905081143 25 134 4.8 9.7 0.00 0.00 0.00 60 1016.2
20260905080307 25 169 4.8 11.3 0.00 0.00 0.00 60 1016.1
20260905075807 26 186 4.8 19.3 0.00 0.00 0.00 60 1016.1
20260905075306 26 173 6.4 19.3 0.00 0.00 0.00 59 1016.2
20260905075138 26 149 8.0 16.1 0.00 0.00 0.00 59 1016.2
20260905074307 26 197 6.4 11.3 0.00 0.00 0.00 59 1016.2
20260905073805 26 172 8.0 16.1 0.00 0.00 0.00 59 1016.2
20260905073312 26 175 8.0 16.1 0.00 0.00 0.00 59 1016.2
20260905072806 26 188 6.4 16.1 0.00 0.00 0.00 59 1016.3
20260905072307 26 193 6.4 14.5 0.00 0.00 0.00 59 1016.3
20260905071809 26 214 6.4 16.1 0.00 0.00 0.00 59 1016.2
20260905071307 26 107 9.7 19.3 0.00 0.00 0.00 59 1016.3
20260905070806 26 165 8.0 19.3 0.00 0.00 0.00 59 1016.3
20260905070306 26 171 8.0 17.7 0.00 0.00 0.00 58 1016.3
20260905065806 26 213 9.7 17.7 0.00 0.00 0.00 58 1016.3
20260905065307 26 240 8.0 19.3 0.00 0.00 0.00 58 1016.3
20260905064806 26 214 12.9 19.3 0.00 0.00 0.00 58 1016.3
20260905064629 26 204 6.4 19.3 0.00 0.00 0.00 58 1016.2
20260905063806 26 162 8.0 19.3 0.00 0.00 0.00 58 1016.3
20260905063634 26 178 9.7 19.3 0.00 0.00 0.00 57 1016.4
20260905062808 26 228 8.0 19.3 0.00 0.00 0.00 57 1016.3
20260905062309 26 147 8.0 16.1 0.00 0.00 0.00 57 1016.3
20260905061807 27 203 6.4 16.1 0.00 0.00 0.00 57 1016.3
20260905061306 27 169 8.0 19.3 0.00 0.00 0.00 57 1016.3
20260905060808 27 171 8.0 20.9 0.00 0.00 0.00 56 1016.3
20260905060307 27 193 9.7 20.9 0.00 0.00 0.00 56 1016.2
20260905060006 27 79 6.4 20.9 0.00 0.00 0.00 56 1016.2
20260905055918 27 189 4.8 20.9 0.00 0.00 0.00 56 1016.2
20260905054807 27 137 11.3 20.9 0.00 0.00 0.00 56 1016.2
20260905054305 27 183 8.0 16.1 0.00 0.00 0.00 56 1016.2
20260905053806 27 145 8.0 17.7 0.00 0.00 0.00 56 1016.2
20260905053307 27 134 6.4 17.7 0.00 0.00 0.00 55 1016.1
20260905052807 27 140 8.0 17.7 0.00 0.00 0.00 55 1015.9
20260905052306 27 162 8.0 17.7 0.00 0.00 0.00 55 1015.9
20260905051806 27 155 6.4 19.3 0.00 0.00 0.00 54 1015.9
20260905051307 27 173 6.4 19.3 0.00 0.00 0.00 54 1016.2
20260905051144 27 190 6.4 14.5 0.00 0.00 0.00 54 1016.2
20260905051010 27 221 4.8 17.7 0.00 0.00 0.00 53 1016.3
20260905045806 27 193 6.4 19.3 0.00 0.00 0.00 53 1016.4
20260905045307 27 175 11.3 19.3 0.00 0.00 0.00 53 1016.4
20260905044806 28 178 11.3 19.3 0.00 0.00 0.00 52 1016.6
20260905044306 28 196 4.8 14.5 0.00 0.00 0.00 51 1016.4
20260905043806 28 185 6.4 14.5 0.00 0.00 0.00 51 1016.3
20260905043306 28 207 4.8 14.5 0.00 0.00 0.00 50 1016.4
20260905043143 28 173 3.2 16.1 0.00 0.00 0.00 50 1016.4
20260905042307 28 161 4.8 17.7 0.00 0.00 0.00 49 1016.4
20260905041807 28 188 6.4 17.7 0.00 0.00 0.00 48 1016.4
20260905041307 28 133 6.4 16.1 0.00 0.00 0.00 47 1016.4
20260905041131 28 183 4.8 16.1 0.00 0.00 0.00 47 1016.2
20260905040519 29 171 8.0 14.5 0.00 0.00 0.00 45 1016.2
20260905040423 29 199 8.0 14.5 0.00 0.00 0.00 45 1016.2
20260905035308 29 224 6.4 14.5 0.00 0.00 0.00 44 1016.3
20260905034806 30 220 4.8 14.5 0.00 0.00 0.00 43 1016.2
20260905034306 30 137 4.8 14.5 0.00 0.00 0.00 42 1016.1
20260905033806 30 94 4.8 19.3 0.00 0.00 0.00 41 1015.9
20260905033307 30 173 4.8 19.3 0.00 0.00 0.00 41 1015.9
20260905032806 30 124 8.0 16.1 0.00 0.00 0.00 40 1015.8
20260905032306 30 125 6.4 9.7 0.00 0.00 0.00 39 1015.7
20260905031808 31 102 0.0 11.3 0.00 0.00 0.00 39 1015.7
20260905031306 31 152 6.4 11.3 0.00 0.00 0.00 38 1015.7
20260905030806 31 104 4.8 8.0 0.00 0.00 0.00 37 1015.5
20260905030308 31 113 3.2 8.0 0.00 0.00 0.00 37 1015.4
20260905025809 31 133 4.8 8.0 0.00 0.00 0.00 37 1015.3
20260905025633 32 141 3.2 8.0 0.00 0.00 0.00 36 1015.2
20260905025137 32 79 3.2 11.3 0.00 0.00 0.00 36 1015.1
20260905024306 32 216 4.8 11.3 0.00 0.00 0.00 35 1015.1
20260905023805 32 116 4.8 11.3 0.00 0.00 0.00 36 1014.9
20260905023305 32 189 1.6 9.7 0.00 0.00 0.00 35 1014.9
20260905022805 32 190 3.2 11.3 0.00 0.00 0.00 36 1014.8
20260905022306 31 319 6.4 11.3 0.00 0.00 0.00 37 1014.7
20260905021810 31 255 1.6 11.3 0.00 0.00 0.00 38 1014.8
20260905021306 31 0 0.0 11.3 0.00 0.00 0.00 38 1014.5
20260905020805 31 272 3.2 9.7 0.00 0.00 0.00 38 1014.5
20260905020310 31 283 4.8 8.0 0.00 0.00 0.00 40 1014.5
20260905020146 31 243 3.2 9.7 0.00 0.00 0.00 39 1014.4
20260905015309 31 199 3.2 14.5 0.00 0.00 0.00 38 1014.2
20260905015134 31 100 4.8 19.3 0.00 0.00 0.00 38 1014.0
20260905014306 31 103 6.4 19.3 0.00 0.00 0.00 38 1014.0
20260905013805 31 99 9.7 19.3 0.00 0.00 0.00 38 1013.9
20260905013309 32 76 8.0 17.7 0.00 0.00 0.00 38 1013.8
20260905012805 32 111 6.4 17.7 0.00 0.00 0.00 38 1013.8
20260905012306 32 114 8.0 17.7 0.00 0.00 0.00 38 1013.8
20260905011806 32 111 9.7 20.9 0.00 0.00 0.00 38 1013.8
20260905011307 32 120 9.7 20.9 0.00 0.00 0.00 38 1013.7
20260905011027 32 128 8.0 20.9 0.00 0.00 0.00 38 1013.7
20260905010808 32 128 8.0 20.9 0.00 0.00 0.00 38 1013.7
20260905010308 32 157 11.3 24.1 0.00 0.00 0.00 38 1013.6
20260905005806 32 110 8.0 24.1 0.00 0.00 0.00 38 1013.6
20260905005307 32 92 11.3 19.3 0.00 0.00 0.00 38 1013.7
20260905004806 32 61 9.7 19.3 0.00 0.00 0.00 38 1013.6
20260905004306 32 76 9.7 19.3 0.00 0.00 0.00 38 1013.5
20260905003806 33 102 11.3 19.3 0.00 0.00 0.00 37 1013.5
20260905003306 33 107 8.0 19.3 0.00 0.00 0.00 36 1013.4
20260905002806 33 113 11.3 19.3 0.00 0.00 0.00 36 1013.5
20260905002306 33 113 6.4 19.3 0.00 0.00 0.00 35 1013.4
20260905001806 33 79 8.0 19.3 0.00 0.00 0.00 35 1013.4
20260905001309 33 144 9.7 20.9 0.00 0.00 0.00 34 1013.4
20260905000806 34 100 12.9 24.1 0.00 0.00 0.00 33 1013.3
20260905000307 34 107 11.3 25.7 0.00 0.00 0.00 33 1013.3
20260904235806 34 103 14.5 25.7 0.00 0.00 0.00 31 1013.3
20260904235306 35 89 9.7 24.1 0.00 0.00 0.00 30 1013.3
20260904234806 35 117 12.9 22.5 0.00 0.00 0.00 28 1013.2
20260904234304 36 128 9.7 22.5 0.00 0.00 0.00 27 1013.0
20260904233806 36 110 8.0 20.9 0.00 0.00 0.00 27 1012.9
20260904233312 36 219 9.7 19.3 0.00 0.00 0.00 27 1013.0
20260904232806 36 123 8.0 27.4 0.00 0.00 0.00 27 1012.8
20260904232307 36 116 16.1 27.4 0.00 0.00 0.00 27 1012.8
20260904231806 36 110 8.0 24.1 0.00 0.00 0.00 27 1012.8
20260904231306 36 113 9.7 24.1 0.00 0.00 0.00 27 1012.8
20260904231113 36 103 8.0 19.3 0.00 0.00 0.00 27 1012.7
20260904230644 36 93 6.4 20.9 0.00 0.00 0.00 27 1012.7
20260904225809 36 90 11.3 20.9 0.00 0.00 0.00 27 1012.8
20260904225306 36 106 9.7 19.3 0.00 0.00 0.00 26 1012.8
20260904225149 36 158 8.0 20.9 0.00 0.00 0.00 27 1012.8
20260904224305 36 190 9.7 25.7 0.00 0.00 0.00 27 1012.9
20260904223805 36 103 12.9 25.7 0.00 0.00 0.00 26 1012.9
20260904223305 36 133 9.7 24.1 0.00 0.00 0.00 27 1012.9
20260904223118 36 154 8.0 20.9 0.00 0.00 0.00 27 1012.9
20260904222647 36 117 9.7 20.9 0.00 0.00 0.00 27 1013.2
20260904222150 36 123 9.7 25.7 0.00 0.00 0.00 27 1013.2
20260904221649 36 127 9.7 25.7 0.00 0.00 0.00 28 1013.2
20260904220804 36 124 12.9 24.1 0.00 0.00 0.00 27 1013.2
20260904220308 37 133 9.7 25.7 0.00 0.00 0.00 27 1013.2
20260904215806 37 131 11.3 25.7 0.00 0.00 0.00 28 1013.2
20260904215649 37 164 12.9 24.1 0.00 0.00 0.00 28 1013.2
20260904214805 37 182 11.3 29.0 0.00 0.00 0.00 28 1013.2
20260904214646 37 173 14.5 29.0 0.00 0.00 0.00 28 1013.2
20260904213806 37 188 12.9 27.4 0.00 0.00 0.00 28 1013.3
20260904213540 37 73 9.7 27.4 0.00 0.00 0.00 28 1013.2
20260904212805 37 145 11.3 27.4 0.00 0.00 0.00 27 1013.2
20260904212307 38 103 11.3 24.1 0.00 0.00 0.00 27 1013.3
20260904212135 37 111 11.3 24.1 0.00 0.00 0.00 28 1013.2
20260904211640 37 79 9.7 24.1 0.00 0.00 0.00 27 1013.4
20260904210805 37 176 14.5 20.9 0.00 0.00 0.00 26 1013.4
20260904210305 38 179 8.0 19.3 0.00 0.00 0.00 26 1013.4
20260904205806 38 155 8.0 19.3 0.00 0.00 0.00 26 1013.4
20260904205309 38 149 9.7 22.5 0.00 0.00 0.00 27 1013.5
20260904205054 38 117 9.7 22.5 0.00 0.00 0.00 26 1013.5
20260904204407 37 234 6.4 19.3 0.00 0.00 0.00 27 1013.5
20260904203305 37 234 9.7 20.9 0.00 0.00 0.00 27 1013.6